| time (UTC) | temp C | wind direction | speed KPH | gust KPH | rain 1hr cm | rain 24hr cm | rain mn cm | humidity % | barometer mb |
| 20260504211535 | 24 | 20.9 | 32.2 | 0.00 | 0.00 | 0.00 | 26 | 948.8 | |
| 20260504210046 | 24 | 17.7 | 33.8 | 0.00 | 0.00 | 0.00 | 27 | 948.9 | |
| 20260504204551 | 24 | 20.9 | 33.8 | 0.00 | 0.00 | 0.00 | 28 | 949.1 | |
| 20260504203034 | 24 | 20.9 | 35.4 | 0.00 | 0.00 | 0.00 | 27 | 949.1 | |
| 20260504201532 | 24 | 24.1 | 37.0 | 0.00 | 0.00 | 0.00 | 28 | 949.1 | |
| 20260504200031 | 23 | 24.1 | 35.4 | 0.00 | 0.00 | 0.00 | 28 | 949.2 | |
| 20260504194531 | 23 | 19.3 | 37.0 | 0.00 | 0.00 | 0.00 | 29 | 949.4 | |
| 20260504193030 | 23 | 165 | 20.9 | 37.0 | 0.00 | 0.00 | 0.00 | 30 | 949.4 |
| 20260504191531 | 23 | 178 | 20.9 | 33.8 | 0.00 | 0.00 | 0.00 | 30 | 949.5 |
| 20260504190028 | 22 | 182 | 20.9 | 38.6 | 0.00 | 0.00 | 0.00 | 31 | 949.7 |
| 20260504184528 | 22 | 221 | 17.7 | 33.8 | 0.00 | 0.00 | 0.00 | 32 | 949.6 |
| 20260504183027 | 22 | 186 | 19.3 | 37.0 | 0.00 | 0.00 | 0.00 | 33 | 949.8 |
| 20260504181527 | 22 | 200 | 16.1 | 37.0 | 0.00 | 0.00 | 0.00 | 33 | 950.0 |
| 20260504180025 | 22 | 197 | 20.9 | 35.4 | 0.00 | 0.00 | 0.00 | 33 | 949.8 |
| 20260504174524 | 22 | 16.1 | 30.6 | 0.00 | 0.00 | 0.00 | 33 | 949.9 | |
| 20260504173023 | 22 | 20.9 | 33.8 | 0.00 | 0.00 | 0.00 | 33 | 949.5 | |
| 20260504171522 | 22 | 19.3 | 33.8 | 0.00 | 0.00 | 0.00 | 32 | 949.5 | |
| 20260504081509 | 26 | 221 | 20.9 | 33.8 | 0.00 | 0.00 | 0.00 | 25 | 946.2 |
| 20260504044543 | 29 | 153 | 16.1 | 38.6 | 0.00 | 0.00 | 0.00 | 19 | 944.6 |
| 20260504043048 | 30 | 209 | 16.1 | 32.2 | 0.00 | 0.00 | 0.00 | 19 | 944.5 |
| 20260504041545 | 30 | 195 | 22.5 | 37.0 | 0.00 | 0.00 | 0.00 | 19 | 944.4 |
| 20260504040045 | 30 | 164 | 17.7 | 33.8 | 0.00 | 0.00 | 0.00 | 19 | 944.3 |
| 20260504034550 | 30 | 181 | 14.5 | 30.6 | 0.00 | 0.00 | 0.00 | 19 | 944.1 |
| 20260504033040 | 30 | 171 | 19.3 | 41.8 | 0.00 | 0.00 | 0.00 | 19 | 943.9 |
| 20260504031543 | 30 | 146 | 20.9 | 35.4 | 0.00 | 0.00 | 0.00 | 20 | 943.5 |
| 20260504030039 | 31 | 174 | 16.1 | 30.6 | 0.00 | 0.00 | 0.00 | 20 | 943.3 |
| 20260504024546 | 31 | 198 | 12.9 | 30.6 | 0.00 | 0.00 | 0.00 | 19 | 943.3 |
| 20260504023038 | 31 | 188 | 14.5 | 33.8 | 0.00 | 0.00 | 0.00 | 18 | 943.2 |
| 20260504021540 | 31 | 179 | 17.7 | 35.4 | 0.00 | 0.00 | 0.00 | 17 | 943.1 |
| 20260504020041 | 32 | 153 | 20.9 | 40.2 | 0.00 | 0.00 | 0.00 | 16 | 943.1 |
| 20260504014538 | 32 | 155 | 20.9 | 37.0 | 0.00 | 0.00 | 0.00 | 16 | 943.1 |
| 20260504013046 | 32 | 163 | 20.9 | 35.4 | 0.00 | 0.00 | 0.00 | 15 | 943.3 |
| 20260504011534 | 32 | 162 | 22.5 | 35.4 | 0.00 | 0.00 | 0.00 | 14 | 943.2 |
| 20260504010037 | 32 | 180 | 17.7 | 35.4 | 0.00 | 0.00 | 0.00 | 14 | 943.3 |
| 20260504004532 | 33 | 16.1 | 43.5 | 0.00 | 0.00 | 0.00 | 14 | 943.5 | |
| 20260504003032 | 33 | 221 | 22.5 | 45.1 | 0.00 | 0.00 | 0.00 | 13 | 943.4 |
| 20260504001536 | 33 | 172 | 25.7 | 41.8 | 0.00 | 0.00 | 0.00 | 13 | 943.6 |
| 20260504000030 | 33 | 229 | 24.1 | 40.2 | 0.00 | 0.00 | 0.00 | 12 | 943.6 |
| 20260503234529 | 33 | 169 | 24.1 | 38.6 | 0.00 | 0.00 | 0.00 | 12 | 943.3 |
| 20260503233028 | 33 | 214 | 17.7 | 32.2 | 0.00 | 0.00 | 0.00 | 12 | 943.7 |
| 20260503231528 | 33 | 207 | 24.1 | 41.8 | 0.00 | 0.00 | 0.00 | 12 | 943.7 |
| 20260503230037 | 33 | 144 | 29.0 | 40.2 | 0.00 | 0.00 | 0.00 | 12 | 943.7 |
| 20260503224524 | 33 | 173 | 24.1 | 38.6 | 0.00 | 0.00 | 0.00 | 11 | 943.9 |
| 20260503223021 | 33 | 22.5 | 48.3 | 0.00 | 0.00 | 0.00 | 11 | 944.0 | |
| 20260503221523 | 33 | 205 | 17.7 | 33.8 | 0.00 | 0.00 | 0.00 | 12 | 944.2 |
| 20260503220018 | 33 | 202 | 17.7 | 43.5 | 0.00 | 0.00 | 0.00 | 12 | 944.4 |
| 20260503214534 | 33 | 184 | 25.7 | 53.1 | 0.00 | 0.00 | 0.00 | 12 | 944.7 |
| 20260503213016 | 34 | 167 | 22.5 | 40.2 | 0.00 | 0.00 | 0.00 | 12 | 944.8 |